Theta_e
305 307 306 303 298 294 291 290 290 290 291 291 291 291 291 291 291 291 291 291 291 291 291 291 291 291 290 290 290 289 289 289 288 288 287 286 286 286 285 285 285 285
302 304 303 299 294 291 290 290 290 290 291 291 291 291 291 291 291 291 291 291 291 291 290 290 290 290 290 290 290 290 289 289 288 287 286 286 286 285 285 285 285 284
300 300 298 295 292 290 290 290 290 290 291 291 291 291 291 290 290 290 290 291 290 290 290 290 290 290 290 290 289 289 289 288 287 287 286 285 285 285 285 284 284 284
298 297 296 293 291 290 290 290 290 290 290 290 290 290 290 290 290 290 290 290 290 290 290 290 289 289 289 289 289 289 288 287 287 286 286 285 285 285 284 284 284 283
297 296 293 291 290 290 290 290 290 290 290 290 290 290 290 290 290 290 289 289 290 290 289 289 289 289 289 289 289 288 287 287 286 286 285 285 285 284 284 284 283 283
296 294 291 289 289 289 289 289 290 290 290 290 290 290 290 290 289 289 289 289 289 289 289 288 288 288 289 289 288 288 287 287 286 285 285 284 284 284 284 283 283 283
294 292 290 289 288 289 289 289 289 290 290 290 289 289 289 289 289 289 289 289 289 289 289 288 288 288 288 288 288 287 287 286 286 285 285 284 284 284 283 283 283 282
293 290 289 288 288 288 289 289 289 290 289 289 289 289 289 289 289 289 289 289 289 289 289 288 288 289 288 288 287 287 286 286 285 285 285 284 283 283 283 283 282 282
291 289 288 288 288 288 288 288 289 289 289 289 289 289 289 289 289 289 289 289 288 288 288 288 288 288 288 288 287 287 286 286 285 285 284 284 284 283 283 282 282 282
290 289 288 288 288 288 288 288 289 289 288 288 288 288 288 288 288 288 288 288 288 288 288 288 288 288 287 287 287 286 286 286 285 285 284 284 283 283 283 282 282 282
289 289 288 288 288 288 288 288 288 288 288 288 288 288 288 288 288 288 288 288 288 288 288 288 288 287 287 287 286 286 286 285 285 285 284 283 283 283 283 282 282 282
289 288 288 288 287 287 288 288 288 288 287 287 287 288 288 288 288 288 288 288 288 288 287 288 288 287 287 287 286 286 285 285 285 284 284 283 283 283 282 282 282 281
289 288 288 287 287 287 287 287 288 287 287 287 287 288 288 288 288 287 287 288 287 287 287 287 287 287 287 286 286 286 285 285 285 284 284 283 283 282 282 282 282 281
289 288 288 287 287 287 287 287 287 287 287 287 287 288 288 288 288 287 287 287 287 287 287 287 287 287 286 286 286 285 285 285 285 284 284 283 282 282 282 282 281 281
289 288 287 287 287 287 287 287 287 287 286 287 287 288 288 287 287 287 287 287 287 286 287 287 287 286 286 286 286 285 285 285 285 285 284 283 283 282 282 282 282 281
289 288 287 287 286 286 286 286 286 286 286 287 287 287 287 287 287 287 287 286 286 286 286 286 286 286 286 286 286 286 286 285 285 285 284 283 283 282 282 282 282 282
288 287 286 286 286 286 286 286 286 286 286 286 287 287 286 286 286 286 286 286 286 286 286 286 286 286 286 286 286 286 286 285 285 285 284 283 283 283 283 283 283 282
288 287 286 286 286 285 285 285 285 285 286 286 286 286 286 286 286 286 286 286 286 286 286 286 286 286 286 286 286 286 285 285 285 285 284 284 283 283 283 283 283 283
288 287 286 286 286 285 285 285 285 285 285 286 285 285 285 285 285 286 286 286 286 286 286 286 287 286 286 286 286 286 286 285 285 285 284 284 283 283 283 283 283 283
287 287 287 286 286 285 285 285 285 285 285 285 285 285 285 285 285 285 286 286 286 286 286 286 287 287 286 286 286 286 286 286 286 285 284 284 284 284 284 284 284 284
287 287 286 286 286 286 285 285 285 285 284 284 284 284 285 285 285 286 286 286 286 286 286 287 287 287 286 286 286 286 286 285 285 285 284 284 284 284 284 284 284 284
287 287 286 286 286 286 285 285 285 284 284 284 284 284 284 285 285 286 286 286 286 286 286 287 287 287 286 286 286 286 285 285 285 285 284 284 284 284 284 284 284 284
287 287 286 286 286 285 285 285 284 284 284 284 284 284 284 285 285 286 286 286 286 286 287 287 287 287 287 286 286 285 284 284 284 284 284 284 284 284 284 284 284 284
287 286 286 286 286 286 286 285 284 284 283 283 284 284 284 285 285 285 285 286 286 287 287 287 287 287 286 286 285 285 284 284 284 284 283 283 284 284 284 284 284 284
287 287 286 286 286 286 286 285 284 284 283 283 283 284 284 284 284 284 285 285 286 287 287 286 286 286 286 285 285 284 283 283 283 282 282 283 283 283 284 284 284 284
287 287 287 286 286 286 285 285 284 284 284 283 283 284 284 284 284 284 285 285 286 285 285 285 285 286 285 285 285 284 283 282 282 282 282 282 282 283 283 284 284 284
Wind_Speed
36 36 38 40 42 45 46 45 43 43 42 41 40 38 37 35 34 32 30 29 27 26 25 23 21 20 19 18 16 14 13 11 10 10 9 9 8 7 7 7 6 5
36 37 39 41 43 45 45 45 44 43 42 40 39 38 37 36 34 33 31 30 28 26 25 23 21 19 18 17 15 13 12 11 10 10 10 9 8 8 7 7 6 6
36 37 39 41 44 45 45 44 43 42 42 40 39 38 37 36 35 33 31 30 28 27 25 23 21 20 18 16 15 12 11 11 11 12 11 10 9 9 8 8 8 8
36 37 39 42 44 46 45 45 43 42 42 41 39 38 37 36 35 34 32 30 28 27 25 23 22 20 18 16 14 13 12 12 12 12 12 12 10 10 10 9 9 10
37 38 40 43 44 46 46 45 44 43 42 41 40 39 38 37 36 34 33 31 29 27 26 24 22 20 18 16 15 14 14 13 13 13 12 12 12 11 11 11 11 11
38 40 42 44 44 45 46 45 44 44 42 41 40 39 38 37 36 35 33 32 29 27 26 25 23 21 19 17 16 15 14 14 15 14 13 13 13 12 12 12 12 12
40 41 43 44 44 44 45 45 44 44 43 42 41 40 39 37 36 35 33 32 30 28 27 25 24 22 20 18 17 16 16 15 15 15 14 13 13 13 13 13 13 13
41 43 44 43 43 44 44 45 44 44 43 42 41 40 39 37 36 35 33 32 30 28 27 25 24 22 20 19 18 18 17 16 16 16 15 15 15 14 14 14 14 14
42 43 44 44 44 44 45 45 45 44 43 43 42 40 39 37 36 35 34 32 30 28 27 26 24 22 21 20 19 18 17 17 16 16 15 15 16 16 15 15 15 15
43 44 45 45 45 46 45 45 45 44 44 43 41 40 39 38 36 35 34 32 30 29 28 26 25 23 21 20 19 18 17 16 16 16 16 16 16 16 16 16 16 16
43 45 46 47 46 46 46 45 45 45 44 43 42 40 39 38 37 35 34 33 31 30 29 27 25 23 22 21 19 18 17 16 16 16 17 17 17 16 16 16 16 16
44 45 47 47 46 46 46 45 45 45 44 43 42 41 40 39 38 36 35 33 31 30 29 27 25 23 22 21 20 19 18 17 17 17 17 17 17 17 17 17 17 16
45 46 46 46 46 46 45 45 45 45 44 43 42 41 40 40 39 37 35 33 32 31 29 27 25 24 23 22 21 20 19 19 19 18 18 18 18 18 18 17 17 17
44 44 45 45 45 45 45 45 45 45 44 44 43 42 41 41 39 37 35 33 32 31 29 27 26 25 24 23 22 21 20 20 19 19 19 20 20 19 19 18 17 17
40 41 42 43 44 44 45 45 45 45 44 44 43 43 42 41 39 37 36 35 34 32 30 28 27 26 25 24 23 22 21 21 20 19 20 21 21 20 19 19 18 18
37 39 40 41 43 44 44 44 44 44 44 44 44 43 42 41 39 38 37 36 35 33 31 30 29 27 26 25 23 21 21 21 20 20 21 22 22 21 20 20 19 18
36 36 37 38 40 42 42 42 43 43 43 44 43 42 41 40 39 39 38 37 35 34 32 31 30 28 26 25 24 22 22 22 21 21 22 23 23 22 21 20 18 18
34 34 35 36 37 38 39 40 40 41 42 43 43 42 41 40 40 40 39 37 36 34 33 32 30 29 27 26 25 24 24 23 22 22 23 24 24 23 21 20 19 18
34 34 34 35 35 35 36 37 38 40 42 43 42 41 40 40 40 39 39 38 37 36 34 33 31 29 28 28 27 26 26 26 25 25 25 25 25 24 22 21 20 19
34 34 34 34 34 34 35 36 38 40 41 41 41 40 39 40 40 39 39 39 38 36 35 34 32 31 30 30 29 29 29 29 27 27 27 27 26 25 24 23 21 20
33 34 34 34 34 34 35 36 37 39 39 40 40 40 40 40 40 40 40 39 38 37 36 35 34 33 32 32 32 32 32 31 30 29 29 29 28 27 26 25 23 22
32 33 33 34 34 34 35 35 36 38 38 38 38 38 38 39 39 40 41 40 39 38 38 37 36 35 35 34 35 34 33 32 32 31 31 32 31 30 29 27 25 25
32 33 33 33 33 34 34 35 36 37 37 36 37 37 38 39 40 41 41 41 40 40 40 39 39 38 37 37 37 36 34 33 34 34 34 34 34 33 31 30 29 28
31 32 32 33 33 34 35 36 36 35 36 36 37 38 39 40 41 40 40 40 41 41 42 42 42 41 40 39 38 37 35 35 36 36 36 36 36 35 34 33 32 32
30 31 32 32 33 35 36 36 35 35 35 35 36 37 38 38 38 38 39 41 42 43 44 45 45 43 41 39 38 37 36 36 36 36 37 39 39 38 37 36 36 36
30 31 32 32 34 35 35 35 34 33 33 33 34 35 35 36 36 38 40 42 43 44 45 45 45 44 42 40 39 38 37 36 37 38 40 41 41 40 40 40 40 39
Wind_Direction
188 190 189 186 182 178 174 173 171 169 168 167 165 164 163 162 161 161 159 157 155 153 151 149 146 143 140 138 136 132 129 129 130 133 140 146 150 151 157 164 163 167
191 191 190 186 181 178 176 175 174 172 171 170 168 166 165 164 163 163 162 160 158 157 154 152 150 148 145 142 142 140 138 141 145 148 154 159 160 163 171 178 179 186
193 191 189 186 182 178 177 176 176 175 174 172 171 169 168 167 165 165 165 164 162 160 158 156 155 153 150 148 148 148 147 152 158 159 163 166 169 175 183 189 194 198
194 193 191 187 183 180 179 178 178 177 176 174 173 172 170 169 168 168 168 167 165 163 161 161 160 157 156 155 156 157 158 162 167 167 170 174 177 184 191 196 203 207
196 196 192 187 184 182 181 181 181 179 178 177 176 175 173 172 172 172 171 170 169 166 165 165 164 163 163 163 164 167 168 170 174 175 177 181 183 189 198 203 207 212
197 196 192 188 186 184 184 184 183 182 181 180 178 178 177 175 175 175 174 173 172 171 169 169 169 168 169 170 171 175 177 177 180 180 182 187 190 195 201 208 213 216
196 194 191 189 188 187 187 186 186 185 184 183 181 181 180 179 179 178 177 176 175 174 173 173 173 173 174 177 177 180 182 183 184 184 186 192 197 202 205 211 217 219
196 194 191 191 190 189 190 189 188 187 187 186 184 183 183 182 182 181 180 180 178 178 177 177 178 178 179 181 184 185 186 186 189 189 192 198 202 208 211 215 219 223
196 194 193 193 192 192 192 191 190 190 189 189 187 186 186 186 185 184 183 183 182 180 180 181 182 183 183 186 189 191 190 190 193 194 198 204 208 212 215 218 223 227
196 195 194 195 195 195 195 194 193 192 191 191 190 189 188 188 189 188 186 186 184 183 184 185 185 185 186 189 192 195 196 197 198 198 202 209 215 217 220 223 226 230
197 196 196 197 197 197 197 195 195 194 193 193 192 192 191 191 191 191 190 189 187 187 187 188 188 188 189 192 194 196 200 203 204 204 206 212 217 221 224 227 230 234
198 198 198 198 199 199 198 197 197 196 195 194 195 194 194 194 194 194 193 191 190 191 191 190 190 191 193 194 196 197 201 206 208 209 211 216 220 223 226 229 232 235
200 200 200 199 200 200 200 199 199 198 197 196 197 197 197 197 197 196 195 194 194 194 194 193 192 192 195 198 199 201 203 207 209 210 213 218 222 225 227 229 232 233
202 201 201 201 201 201 201 201 200 200 199 199 199 200 201 200 199 198 197 196 197 197 196 195 194 195 197 199 202 203 206 210 212 212 215 219 222 225 226 229 232 233
203 202 202 202 202 202 202 202 201 201 200 200 201 202 203 203 202 200 199 199 199 199 198 197 197 198 199 201 203 205 208 212 214 215 218 220 223 224 226 229 231 234
204 204 203 202 202 202 202 202 202 202 201 202 203 204 205 204 203 202 202 202 201 200 199 199 199 200 202 204 206 208 212 214 215 217 219 222 224 225 227 229 232 236
205 205 204 203 203 203 203 202 202 202 202 204 205 206 206 206 205 204 204 204 204 202 201 202 202 203 204 206 209 212 216 218 218 220 221 223 225 226 228 231 233 236
205 205 204 205 205 204 203 203 203 203 203 205 207 207 207 206 206 207 207 207 206 205 205 205 205 205 206 208 212 214 218 220 221 222 224 225 227 228 230 232 233 236
205 205 205 206 206 205 205 204 204 205 206 207 208 208 208 208 208 208 209 209 209 208 209 209 209 208 209 211 215 217 220 222 223 224 226 228 230 231 232 233 234 237
204 205 205 207 207 207 207 207 207 208 208 209 210 209 209 209 209 210 211 212 212 212 212 213 213 213 213 215 218 220 223 225 226 226 229 231 232 234 235 235 236 238
203 204 205 207 208 209 210 210 210 210 210 211 211 211 211 212 211 212 214 214 215 215 216 217 218 217 217 219 221 223 225 228 229 229 231 234 235 236 238 239 238 240
204 204 205 206 208 209 210 212 213 213 212 212 212 213 214 214 214 215 217 217 218 218 219 221 223 221 221 222 224 225 227 230 232 233 234 237 239 239 241 242 241 242
206 205 205 206 207 209 211 214 215 215 214 214 213 213 214 216 217 218 219 220 220 221 223 226 227 226 224 225 225 226 228 231 235 237 237 239 242 243 244 245 246 246
208 207 207 207 209 211 214 216 216 216 216 216 216 216 217 218 220 221 222 223 224 225 228 230 231 230 228 226 227 229 230 233 237 240 242 243 244 245 247 248 249 249
211 211 211 211 213 215 216 217 217 217 218 219 219 220 221 222 222 223 225 227 228 230 231 232 233 233 231 229 230 231 232 234 238 241 243 247 248 249 250 251 251 252
214 215 215 216 217 218 218 219 219 219 220 221 223 224 225 226 227 228 230 231 231 232 233 234 235 236 235 233 233 233 234 235 238 241 244 248 250 251 253 254 254 255